Flag for Poland Weather past 2 weeks in Gdansk, Poland

Now
66 °F

Clear.


Feels Like: 66 °F
Forecast: 65 / 81 °F
Wind: 8 mph from Northeast

Location: Gdansk-Rebiechowo

Current Time: Jul 24, 2014 at 3:23:34 AM

Latest Report: Jul 24, 2014 at 3:00 AM


Visibility: 10 mi

Pressure: 30.09 "Hg

Humidity: 78%

Dew point: 59 °F

Location of GdanskLocation

Historic Weather in Gdansk — Graph

°F

Gdansk temperature yesterday

Maximum temperature yesterday: 73 °F (at 12:00 PM)
Minimum temperature yesterday: 63 °F (at 2:00 AM)
Average temperature yesterday: 69 °F

Past Weeks' High & Low Weather Summary

 TemperatureHumidityPressure
High81 °F (Jul 9, 3:00 PM)100% (Jul 12, 3:30 PM)30.21 "Hg (Jul 12, 3:30 PM)
Low52 °F (Jul 19, 5:00 AM)44% (Jul 18, 2:00 PM)29.65 "Hg (Jul 13, 4:00 AM)
Average66 °F74%29.98 "Hg
* Reported Jul 9 2:00 AM — Jul 24 2:00 AM, Gdansk, Weather by CustomWeather, © 2014

Note: Actual official high and low records may vary slightly from our data, if they occured in-between our weather recording intervals... More about our weather records

Advertising

Gdansk weather history for previous 24 hours

 ConditionsComfort  
Time TempWeatherWind HumidityBarometerVisibility
2:00 AM
Jul 24
66 °FClear.8 mph83%30.09 "Hg10 mi
1:30 AM66 °FClear.8 mph88%30.09 "Hg10 mi
1:00 AM66 °FClear.8 mph88%30.09 "Hg10 mi
12:30 AM66 °FClear.7 mph88%30.09 "Hg10 mi
12:00 AM66 °FClear.8 mph88%30.12 "Hg10 mi
11:30 PM
Jul 23
66 °FPassing clouds.7 mph88%30.09 "HgN/A
11:00 PM66 °FClear.8 mph88%30.12 "Hg10 mi
10:30 PM66 °FClear.9 mph83%30.12 "Hg10 mi
10:00 PM66 °FSunny.8 mph83%30.12 "Hg10 mi
9:00 PM68 °FSunny.9 mph78%30.09 "Hg10 mi
8:30 PM68 °FSunny.13 mph73%30.09 "Hg10 mi
8:00 PM70 °FSunny.10 mph69%30.09 "Hg10 mi
7:30 PM70 °FPassing clouds.10 mph69%30.09 "HgN/A
7:00 PM70 °FPassing clouds.10 mph69%30.09 "HgN/A
6:30 PM72 °FPassing clouds.14 mph61%30.09 "HgN/A
6:00 PM72 °FPassing clouds.15 mph61%30.09 "HgN/A
5:30 PM73 °FPassing clouds.14 mph57%30.09 "HgN/A
5:00 PM73 °FPassing clouds.16 mph53%30.09 "HgN/A
4:30 PM73 °FPassing clouds.14 mph53%30.09 "HgN/A
4:00 PM73 °FPassing clouds.14 mph53%30.09 "HgN/A
3:30 PM73 °FPassing clouds.12 mph53%30.09 "HgN/A
3:00 PM73 °FPassing clouds.14 mph50%30.12 "HgN/A
2:00 PM73 °FPassing clouds.13 mph57%30.12 "HgN/A
1:30 PM73 °FPassing clouds.13 mph57%30.12 "HgN/A
1:00 PM73 °FPassing clouds.10 mph53%30.12 "HgN/A
12:30 PM73 °FPassing clouds.12 mph57%30.12 "HgN/A
12:00 PM73 °FPassing clouds.12 mph61%30.15 "HgN/A
11:30 AM72 °FPassing clouds.12 mph65%30.12 "HgN/A
11:00 AM72 °FPassing clouds.13 mph69%30.15 "HgN/A
10:30 AM72 °FPassing clouds.14 mph69%30.15 "HgN/A
10:00 AM72 °FPassing clouds.10 mph69%30.12 "HgN/A
8:00 AM70 °FPassing clouds.9 mph73%30.12 "HgN/A
7:00 AM68 °FSunny.7 mph78%30.12 "Hg10 mi
6:30 AM66 °FPassing clouds.7 mph83%30.12 "HgN/A
6:00 AM66 °FSunny.7 mph83%30.12 "Hg10 mi
5:30 AM64 °FClear.7 mph88%30.12 "Hg10 mi
5:00 AM64 °FClear.7 mph88%30.09 "Hg10 mi
4:30 AM66 °FPassing clouds.6 mph78%30.12 "HgN/A
4:00 AM64 °FPassing clouds.3 mph88%30.12 "HgN/A
3:30 AM64 °FClear.5 mph88%30.12 "Hg10 mi
3:00 AM66 °FClear.5 mph83%30.12 "Hg10 mi
Weather by CustomWeather, © 2014

See weather overviewHow to use our weather pages